Location: Владивосток
(43.1151°N, 131.8856°E)
Time: 04:46:41
(UTC+10:00)

CUBEBUG 2 - Pass Details

Date: 07 July 2022
Orbit: 584 x 693 km, 97.7° (Epoch: 07 August)

Event Time Altitude Azimuth Distance (km) Brightness Sun altitude
Rises 03:12:21 0° 28° (NNE) 2,859 ? -19.1°
Reaches altitude 10° 03:15:02 10° 47° (NE) 1,967 ? -18.9°
Maximum altitude 03:18:08 19° 93° (E) 1,466 ? -18.6°
Drops below altitude 10° 03:21:17 10° 140° (SE) 2,001 ? -18.3°
Enters shadow 03:21:40 - 143° (SE) 2,119 ? -18.3°
